Weather History for Perry, IA

Change the Weather History Date:

Wednesday, May 22, 2013

  Actual Average Record
Temperature  
Mean Temperature 58 °F -  
Max Temperature 62 °F 73 °F 90 °F (1964)
Min Temperature 53 °F 51 °F 31 °F (1963)
Degree Days  
Heating Degree Days 8    
Growing Degree Days 8 (Base 50)    
Moisture  
Dew Point 50 °F    
Average Humidity 78    
Maximum Humidity 90    
Minimum Humidity 65    
Precipitation  
Precipitation 0.00 in - - ()
Sea Level Pressure  
Sea Level Pressure 29.75 in    
Wind  
Wind Speed 12 mph (WNW)    
Max Wind Speed 18 mph    
Max Gust Speed 24 mph    
Visibility 9 miles    
Events Rain    
Averages and records for this station are not official NWS values.
T = Trace of Precipitation, MM = Missing Value Source: NWS Daily Summary

Daily Weather History Graph

Daily Weather History Graph

Search for Another Location

Airport:

Trip Planner

Search our weather history database for the weather conditions in past years. The results will help you decide how hot, cold, wet, or windy it might be!

Date:

Astronomy

May. 22, 2013 Rise Set
Actual Time 5:50 AM CDT 8:37 PM CDT
Civil Twilight 5:17 AM CDT 9:09 PM CDT
Nautical Twilight 4:36 AM CDT 9:50 PM CDT
Astronomical Twilight 3:49 AM CDT 10:38 PM CDT
Moon 5:58 PM CDT (5/22) 3:57 AM CDT (5/22)
Length of Visible Light 15h 52m
Length of Day
14h 46m
Waxing Gibbous, 91% of the Moon is Illuminated
May 22
Waxing Gibbous
May 24
Full
May 31
Last Quarter
Jun 8
New
Jun 16
First Quarter

Hourly Weather History & Observations

Time (CDT) Temp. Dew Point Humidity Pressure Visibility Wind Dir Wind Speed Gust Speed Precip Events Conditions
12:15 AM 58.1 °F 52.7 °F 82% 29.66 in 10.0 mi West 11.5 mph - N/A   Scattered Clouds
12:35 AM 58.1 °F 53.1 °F 83% 29.66 in 10.0 mi West 10.4 mph - N/A   Mostly Cloudy
12:55 AM 58.1 °F 53.4 °F 84% 29.66 in 10.0 mi West 12.7 mph - N/A   Overcast
1:15 AM 58.1 °F 52.7 °F 82% 29.66 in 10.0 mi West 10.4 mph - N/A   Overcast
1:35 AM 57.7 °F 52.3 °F 82% 29.66 in 10.0 mi WNW 13.8 mph - N/A   Overcast
1:55 AM 57.2 °F 52.3 °F 84% 29.66 in 10.0 mi West 10.4 mph - N/A   Overcast
2:35 AM 56.8 °F 51.8 °F 83% 29.68 in 10.0 mi West 11.5 mph - N/A   Overcast
2:55 AM 56.8 °F 52.2 °F 84% 29.68 in 10.0 mi West 13.8 mph - N/A   Overcast
3:15 AM 56.7 °F 51.8 °F 84% 29.67 in 10.0 mi West 12.7 mph - N/A   Overcast
3:35 AM 56.5 °F 51.4 °F 83% 29.68 in 10.0 mi West 11.5 mph - N/A   Overcast
3:55 AM 56.3 °F 51.1 °F 83% 29.68 in 7.0 mi WSW 12.7 mph - N/A   Overcast
4:15 AM 55.8 °F 50.9 °F 84% 29.67 in 7.0 mi West 12.7 mph - N/A   Overcast
4:35 AM 55.6 °F 50.5 °F 83% 29.67 in 10.0 mi West 11.5 mph - N/A   Overcast
4:55 AM 55.6 °F 50.5 °F 83% 29.67 in 10.0 mi West 11.5 mph - N/A   Overcast
5:15 AM 55.4 °F 50.5 °F 84% 29.66 in 10.0 mi West 11.5 mph - N/A   Overcast
5:35 AM 55.4 °F 50.4 °F 83% 29.66 in 10.0 mi West 13.8 mph - N/A   Overcast
5:55 AM 55.2 °F 50.5 °F 84% 29.66 in 10.0 mi West 11.5 mph - N/A   Overcast
6:15 AM 54.9 °F 50.9 °F 86% 29.67 in 10.0 mi West 10.4 mph - N/A   Overcast
6:55 AM 55.0 °F 51.1 °F 86% 29.67 in 7.0 mi West 10.4 mph - N/A   Overcast
7:15 AM 55.4 °F 51.3 °F 86% 29.68 in 7.0 mi West 9.2 mph - N/A   Overcast
7:35 AM 55.4 °F 51.8 °F 88% 29.68 in 7.0 mi West 8.1 mph - N/A   Overcast
7:55 AM 56.3 °F 51.4 °F 84% 29.68 in 10.0 mi West 9.2 mph - N/A   Overcast
8:35 AM 57.4 °F 51.8 °F 82% 29.68 in 10.0 mi West 13.8 mph - N/A   Overcast
8:55 AM 57.9 °F 52.0 °F 81% 29.69 in 10.0 mi West 13.8 mph - N/A   Overcast
9:15 AM 58.5 °F 52.0 °F 79% 29.69 in 10.0 mi West 16.1 mph - N/A   Overcast
9:35 AM 59.5 °F 52.2 °F 77% 29.69 in 10.0 mi West 13.8 mph - N/A   Overcast
9:55 AM 61.0 °F 52.0 °F 72% 29.69 in 10.0 mi West 13.8 mph 18.4 mph N/A   Overcast
10:02 AM 62.6 °F 51.8 °F 68% 29.69 in 10.0 mi West 12.7 mph - N/A   Overcast
10:15 AM 60.8 °F 52.0 °F 73% 29.69 in 10.0 mi West 13.8 mph - N/A   Overcast
10:35 AM 61.2 °F 52.7 °F 74% 29.70 in 10.0 mi West 16.1 mph - N/A   Overcast
11:35 AM 61.7 °F 51.4 °F 69% 29.72 in 10.0 mi NW 12.7 mph - N/A   Overcast
11:55 AM 61.3 °F 51.4 °F 70% 29.72 in 10.0 mi NW 13.8 mph - N/A   Overcast
12:15 PM 61.2 °F 51.6 °F 71% 29.73 in 10.0 mi NW 11.5 mph 17.3 mph N/A   Overcast
12:55 PM 59.5 °F 51.3 °F 74% 29.74 in 10.0 mi NW 15.0 mph 18.4 mph N/A   Overcast
1:15 PM 60.3 °F 51.3 °F 72% 29.74 in 10.0 mi WNW 15.0 mph 20.7 mph N/A   Overcast
1:55 PM 60.1 °F 50.0 °F 69% 29.75 in 10.0 mi WNW 17.3 mph 23.0 mph N/A   Overcast
2:15 PM 59.7 °F 49.6 °F 69% 29.76 in 10.0 mi WNW 15.0 mph 20.7 mph N/A   Overcast
2:35 PM 60.1 °F 49.3 °F 67% 29.76 in 10.0 mi WNW 16.1 mph 19.6 mph N/A   Overcast
2:55 PM 59.5 °F 49.3 °F 69% 29.77 in 10.0 mi WNW 16.1 mph 24.2 mph N/A   Overcast
3:15 PM 59.7 °F 48.7 °F 67% 29.77 in 10.0 mi NW 16.1 mph 23.0 mph N/A   Overcast
3:55 PM 58.8 °F 48.2 °F 68% 29.78 in 10.0 mi NW 15.0 mph 18.4 mph N/A   Overcast
4:15 PM 58.5 °F 47.8 °F 68% 29.78 in 10.0 mi WNW 16.1 mph 20.7 mph N/A   Overcast
4:24 PM 59.0 °F 48.2 °F 67% 29.79 in 10.0 mi WNW 12.7 mph - N/A   Overcast
4:35 PM 59.2 °F 47.5 °F 65% 29.79 in 10.0 mi NW 18.4 mph 21.9 mph N/A   Overcast
4:55 PM 58.5 °F 46.8 °F 65% 29.79 in 10.0 mi NW 17.3 mph - N/A   Overcast
5:15 PM 58.5 °F 47.1 °F 66% 29.79 in 10.0 mi NW 15.0 mph 20.7 mph N/A   Overcast
5:55 PM 58.3 °F 46.4 °F 65% 29.81 in 10.0 mi NW 15.0 mph - N/A   Overcast
6:15 PM 58.1 °F 46.4 °F 65% 29.81 in 10.0 mi NW 13.8 mph - N/A   Overcast
6:35 PM 57.7 °F 46.2 °F 65% 29.81 in 10.0 mi NW 13.8 mph 19.6 mph N/A   Overcast
6:55 PM 57.4 °F 46.9 °F 68% 29.82 in 10.0 mi NW 13.8 mph - N/A   Overcast
7:15 PM 56.7 °F 46.2 °F 68% 29.83 in 10.0 mi NW 15.0 mph - N/A   Overcast
7:55 PM 55.4 °F 47.8 °F 76% 29.84 in 10.0 mi NW 9.2 mph - N/A Rain Rain
8:15 PM 54.7 °F 48.6 °F 80% 29.85 in 10.0 mi NW 9.2 mph - N/A   Light Drizzle
8:55 PM 53.8 °F 49.1 °F 84% 29.86 in 7.0 mi NW 9.2 mph - N/A   Light Drizzle
9:15 PM 53.6 °F 49.1 °F 85% 29.87 in 10.0 mi NW 9.2 mph - N/A   Light Drizzle
9:35 PM 53.6 °F 49.3 °F 85% 29.87 in 10.0 mi NW 8.1 mph - N/A   Overcast
9:55 PM 53.6 °F 49.6 °F 86% 29.88 in 10.0 mi WNW 9.2 mph - N/A   Overcast
10:15 PM 53.2 °F 50.0 °F 89% 29.89 in 4.0 mi NW 9.2 mph - N/A   Overcast
10:35 PM 53.1 °F 50.2 °F 90% 29.90 in 3.0 mi NW 10.4 mph - N/A   Overcast
10:55 PM 53.1 °F 50.2 °F 90% 29.90 in 2.5 mi NW 8.1 mph - N/A   Overcast
11:15 PM 53.1 °F 50.0 °F 89% 29.90 in 10.0 mi NW 10.4 mph - N/A   Overcast
11:35 PM 53.2 °F 50.0 °F 89% 29.91 in 10.0 mi NW 10.4 mph - N/A   Overcast
11:55 PM 53.1 °F 50.0 °F 89% 29.92 in 4.0 mi NW 11.5 mph - N/A   Overcast